Location: Aldenham
(51.6667°N, 0.3500°W)
Time: 06:34:26
(UTC+00:00)

SPOT 1/Viking Rocket - Pass Details

Date: 18 November 2025
Orbit: 773 x 789 km, 98.2° (Epoch: 10 December)

Event Time Altitude Azimuth Distance (km) Brightness Sun altitude
Rises 18:19:28 0° 171° (S) 3,258 6.7 -20.1°
Reaches altitude 10° 18:21:47 10° 174° (S) 2,337 6.0 -20.5°
Maximum altitude 18:26:56 69° 258° (WSW) 844 3.8 -21.3°
Drops below altitude 10° 18:32:08 10° 341° (NNW) 2,362 6.2 -22.1°
Sets 18:34:30 0° 344° (NNW) 3,297 6.9 -22.5°
